Regional Weather Roundup
Issued by NWS

Home | Current Version | Previous Version | Graphics & Text | Print | Product List | Glossary On
Versions: 1 2 3 4 5 6 7 8 9 10 11 12 13 14 15 16 17 18 19 20 21 22 23 24 25 26 27 28 29 30 31 32 33 34 35 36 37 38 39 40 41 42 43 44 45 46 47 48 49 50
000
ASUS45 KCYS 011910
RWRWY

WYOMING REGIONAL WEATHER ROUNDUP
NATIONAL WEATHER SERVICE CHEYENNE WY
100 PM MDT WED APR 01 2015

NOTE:  "FAIR" INDICATES FEW OR NO CLOUDS BELOW 12,000 FEET
WITH NO SIGNIFICANT WEATHER AND/OR OBSTRUCTIONS TO VISIBILITY.

WYZ001-012000-
YELLOWSTONE NATIONAL PARK

CITY           SKY/WX    TMP DP  RH WIND       PRES   REMARKS
LK YELLOWSTONE   N/A     26  15  63 W10G23    29.96S WCI  16
W YELLOWSTONE  NOT AVBL

$$
WYZ002>013-054>058-071-098>099-012000-
NORTHERN WYOMING

CITY           SKY/WX    TMP DP  RH WIND       PRES   REMARKS
JACKSON        MOSUNNY   36  16  44 SW12      29.99F WCI  27
CODY           PTSUNNY   48  10  21 W18G26    29.88S
GREYBULL       FAIR      51  13  21 NW15G25   29.86S
WORLAND        CLOUDY    51  17  26 NW15G21   29.87F
SHERIDAN       FAIR      49  13  23 NW18G32   29.86F
BUFFALO        FAIR      47  14  26 N28G39    29.82F
GILLETTE       CLOUDY    40  26  57 N16       29.85F WCI  31
HULETT         CLOUDY    41  28  60 W5        29.86S
NEWCASTLE      FAIR      45  32  61 NW37      29.82R

$$
WYZ014>020-022>026-101>103-012000-
CENTRAL WYOMING

CITY           SKY/WX    TMP DP  RH WIND       PRES   REMARKS
BIG PINEY      FAIR      41   4  21 NW20G25   29.99F
PINEDALE       MOCLDY    36  12  38 NW15G23   29.99S WCI  26
DUBOIS         CLOUDY    32   9  37 NW16G36   29.91S WCI  21
LANDER         NOT AVBL
RIVERTON       FAIR      51   9  18 NW29G37   29.86S
CASPER         PTSUNNY   47  31  53 N22       29.84R
DOUGLAS        PTSUNNY   49  29  46 N24G35    29.81R

$$
WYZ021-027>030-104>119-012000-
SOUTHERN WYOMING

CITY           SKY/WX    TMP DP  RH WIND       PRES   REMARKS
EVANSTON       FAIR      40   7  25 W22G32    30.03F WCI  30
KEMMERER       FAIR      37   9  30 W21G36    30.02S WCI  27
FORT BRIDGER   FAIR      43   6  21 W13G26    30.05F
ROCK SPRINGS   FAIR      45   7  21 W22G31    29.98F
DIXON          CLOUDY    49  16  27 W12G17    29.98F
RAWLINS        FAIR      50   2  14 W28G36    29.90F
SARATOGA       CLOUDY    46  14  27 W16G30    29.94F
LARAMIE        CLOUDY    52  24  33 W23       29.85F
CHEYENNE       CLOUDY    58  26  29 N13       29.79F
TORRINGTON     FAIR      67  24  19 W24G33    29.72R
PINE BLUFFS    FAIR      68  25  19 W20G28    29.74F

$$


USA.gov is the U.S. government's official web portal to all federal, state and local government web resources and services.